Weather History for KFKA - September, 2012

Change the Weather History Date:

Wednesday, September 19, 2012

  Actual Average (KRST) Record (KRST)
Temperature  
Mean Temperature 60 °F 60 °F  
Max Temperature 74 °F 70 °F 92 °F (1908)
Min Temperature 46 °F 49 °F 30 °F (1991)
Degree Days  
Heating Degree Days 6 7  
Month to date heating degree days 78  
Since 1 July heating degree days 116  
Cooling Degree Days 0 1  
Month to date cooling degree days 44  
Year to date cooling degree days 569  
Growing Degree Days 10 (Base 50)    
Moisture  
Dew Point 36 °F    
Average Humidity 44    
Maximum Humidity 62    
Minimum Humidity 23    
Precipitation  
Precipitation 0.00 in 0.11 in 2.51 in (1983)
Month to date precipitation 2.25  
Year to date precipitation 26.44  
Snow  
Snow 0.00 in 0.00 in 0.00 in (2012)
Month to date snowfall 0.0  
Since 1 July snowfall 0.0  
Snow Depth -    
Sea Level Pressure  
Sea Level Pressure 29.81 in    
Wind  
Wind Speed 12 mph (SW)    
Max Wind Speed 24 mph    
Max Gust Speed 36 mph    
Visibility 10 miles    
Events      
T = Trace of Precipitation, MM = Missing Value Source: NWS Daily Summary

Daily Weather History Graph

Daily Weather History Graph

Search for Another Location

Airport or City:

Trip Planner

Search our weather history database for the weather conditions in past years. The results will help you decide how hot, cold, wet, or windy it might be!

Date:

Astronomy

Sep. 19, 2012 Rise Set
Actual Time 6:53 AM CDT 7:10 PM CDT
Civil Twilight 6:24 AM CDT 7:39 PM CDT
Nautical Twilight 5:50 AM CDT 8:12 PM CDT
Astronomical Twilight 5:15 AM CDT 8:47 PM CDT
Moon 11:13 AM CDT (9/19) 9:10 PM CDT (9/19)
Length of Visible Light 13h 14m
Length of Day
12h 17m
Waxing Crescent, 17% of the Moon is Illuminated
Sep 19
Waxing Crescent
Sep 22
First Quarter
Sep 29
Full
Oct 8
Last Quarter
Oct 15
New

Hourly Weather History & Observations

Time (CDT) Temp. Windchill Dew Point Humidity Pressure Visibility Wind Dir Wind Speed Gust Speed Precip Events Conditions
12:13 AM 46.0 °F 43.1 °F 33.1 °F 61% 29.95 in 10.0 mi South 5.8 mph - N/A   Overcast
12:34 AM 46.6 °F - 32.4 °F 58% 29.95 in 10.0 mi SSE 4.6 mph - N/A   Overcast
12:53 AM 46.6 °F - 32.5 °F 58% 29.94 in 10.0 mi SSE 5.8 mph - N/A   Overcast
1:13 AM 46.6 °F - 32.9 °F 59% 29.94 in 10.0 mi SSE 3.5 mph - N/A   Overcast
1:34 AM 47.1 °F - 33.1 °F 58% 29.94 in 10.0 mi SSE 6.9 mph - N/A   Overcast
1:53 AM 47.5 °F - 33.3 °F 58% 29.94 in 10.0 mi South 6.9 mph - N/A   Overcast
2:13 AM 48.0 °F - 32.5 °F 55% 29.94 in 10.0 mi South 9.2 mph - N/A   Overcast
2:33 AM 48.2 °F - 32.9 °F 55% 29.93 in 10.0 mi South 10.4 mph - N/A   Overcast
2:53 AM 48.6 °F - 32.5 °F 54% 29.92 in 10.0 mi South 11.5 mph - N/A   Overcast
3:14 AM 48.4 °F - 32.9 °F 55% 29.92 in 10.0 mi South 9.2 mph - N/A   Overcast
3:33 AM 48.6 °F - 32.9 °F 55% 29.91 in 10.0 mi South 9.2 mph - N/A   Overcast
3:53 AM 48.7 °F - 32.9 °F 54% 29.90 in 10.0 mi South 11.5 mph - N/A   Overcast
4:13 AM 49.1 °F - 32.4 °F 53% 29.89 in 10.0 mi South 10.4 mph - N/A   Overcast
4:53 AM 50.0 °F - 32.0 °F 50% 29.88 in 10.0 mi South 13.8 mph 18.4 mph N/A   Overcast
5:13 AM 49.5 °F - 32.4 °F 52% 29.87 in 10.0 mi South 12.7 mph - N/A   Overcast
5:53 AM 50.4 °F - 32.5 °F 50% 29.85 in 10.0 mi South 12.7 mph 19.6 mph N/A   Overcast
6:14 AM 50.9 °F - 32.5 °F 49% 29.84 in 10.0 mi South 13.8 mph 20.7 mph N/A   Overcast
6:33 AM 50.9 °F - 32.9 °F 50% 29.84 in 10.0 mi South 15.0 mph 23.0 mph N/A   Mostly Cloudy
6:53 AM 50.9 °F - 33.3 °F 51% 29.82 in 10.0 mi South 16.1 mph 21.9 mph N/A   Mostly Cloudy
7:14 AM 51.8 °F - 33.8 °F 50% 29.81 in 10.0 mi South 17.3 mph 24.2 mph N/A   Scattered Clouds
8:13 AM 53.2 °F - 34.5 °F 49% 29.80 in 10.0 mi SSW 19.6 mph 28.8 mph N/A   Clear
8:33 AM 53.1 °F - 35.1 °F 50% 29.79 in 10.0 mi South 19.6 mph 25.3 mph N/A   Clear
8:53 AM 54.3 °F - 36.0 °F 50% 29.78 in 10.0 mi SSW 16.1 mph - N/A   Clear
9:14 AM 55.6 °F - 37.0 °F 50% 29.77 in 10.0 mi SSW 17.3 mph 24.2 mph N/A   Clear
9:33 AM 58.1 °F - 37.9 °F 47% 29.77 in 10.0 mi SSW 18.4 mph 27.6 mph N/A   Clear
9:53 AM 59.0 °F - 38.8 °F 47% 29.77 in 10.0 mi SSW 10.4 mph 26.5 mph N/A   Clear
10:13 AM 59.0 °F - 39.6 °F 49% 29.77 in 10.0 mi SSW 17.3 mph 25.3 mph N/A   Scattered Clouds
10:33 AM 61.0 °F - 40.6 °F 47% 29.78 in 10.0 mi SW 13.8 mph 19.6 mph N/A   Scattered Clouds
10:54 AM 61.9 °F - 41.5 °F 47% 29.77 in 10.0 mi SW 13.8 mph - N/A   Clear
11:13 AM 63.0 °F - 41.2 °F 45% 29.77 in 10.0 mi SSW 16.1 mph 23.0 mph N/A   Clear
11:33 AM 64.9 °F - 41.9 °F 43% 29.77 in 10.0 mi SSW 9.2 mph 18.4 mph N/A   Clear
11:54 AM 66.4 °F - 42.1 °F 41% 29.75 in 10.0 mi SSW 17.3 mph 20.7 mph N/A   Clear
12:13 PM 67.3 °F - 42.4 °F 40% 29.74 in 10.0 mi SW 12.7 mph 19.6 mph N/A   Clear
12:33 PM 68.2 °F - 42.1 °F 39% 29.73 in 10.0 mi SSW 17.3 mph 23.0 mph N/A   Clear
12:54 PM 69.4 °F - 42.6 °F 38% 29.72 in 10.0 mi SW 17.3 mph 24.2 mph N/A   Clear
1:13 PM 70.3 °F - 42.8 °F 37% 29.71 in 10.0 mi SW 17.3 mph 23.0 mph N/A   Clear
1:33 PM 71.8 °F - 43.0 °F 35% 29.70 in 10.0 mi SSW 16.1 mph 23.0 mph N/A   Clear
1:54 PM 71.6 °F - 43.0 °F 36% 29.70 in 10.0 mi SW 16.1 mph 23.0 mph N/A   Scattered Clouds
2:13 PM 70.7 °F - 43.3 °F 37% 29.70 in 10.0 mi SW 16.1 mph 23.0 mph N/A   Scattered Clouds
2:33 PM 73.2 °F - 43.9 °F 35% 29.70 in 10.0 mi WSW 13.8 mph 23.0 mph N/A   Scattered Clouds
3:13 PM 73.9 °F - 42.4 °F 32% 29.69 in 10.0 mi West 15.0 mph 25.3 mph N/A   Clear
3:53 PM 73.4 °F - 41.5 °F 32% 29.69 in 10.0 mi WNW 19.6 mph 31.1 mph N/A   Scattered Clouds
4:13 PM 73.4 °F - 41.4 °F 31% 29.70 in 10.0 mi NW 23.0 mph 27.6 mph N/A   Scattered Clouds
4:34 PM 72.9 °F - 40.1 °F 31% 29.71 in 10.0 mi NW 20.7 mph 31.1 mph N/A   Clear
4:53 PM 72.7 °F - 36.7 °F 27% 29.72 in 10.0 mi WNW 23.0 mph 31.1 mph N/A   Scattered Clouds
5:13 PM 71.8 °F - 34.3 °F 25% 29.72 in 10.0 mi NW 20.7 mph 31.1 mph N/A   Clear
5:34 PM 70.7 °F - 31.3 °F 23% 29.73 in 10.0 mi WNW 20.7 mph 35.7 mph N/A   Clear
5:53 PM 69.8 °F - 32.0 °F 25% 29.74 in 10.0 mi WNW 21.9 mph 29.9 mph N/A   Clear
6:13 PM 68.9 °F - 32.9 °F 26% 29.75 in 10.0 mi WNW 17.3 mph 31.1 mph N/A   Clear
6:34 PM 67.3 °F - 32.0 °F 27% 29.76 in 10.0 mi NW 24.2 mph 29.9 mph N/A   Clear
6:53 PM 66.0 °F - 32.0 °F 28% 29.77 in 10.0 mi NW 17.3 mph 26.5 mph N/A   Clear
7:13 PM 64.4 °F - 32.0 °F 30% 29.78 in 10.0 mi NW 18.4 mph 25.3 mph N/A   Clear
7:33 PM 63.7 °F - 32.2 °F 31% 29.80 in 10.0 mi NW 19.6 mph 28.8 mph N/A   Clear
7:53 PM 62.4 °F - 32.5 °F 33% 29.81 in 10.0 mi NW 12.7 mph - N/A   Clear
8:14 PM 60.8 °F - 32.4 °F 34% 29.82 in 10.0 mi NW 13.8 mph - N/A   Clear
8:33 PM 59.5 °F - 33.1 °F 37% 29.83 in 10.0 mi NW 10.4 mph - N/A   Clear
8:53 PM 57.9 °F - 33.4 °F 40% 29.85 in 10.0 mi WNW 10.4 mph - N/A   Clear
9:13 PM 55.6 °F - 34.0 °F 44% 29.85 in 10.0 mi NW 11.5 mph - N/A   Clear
9:33 PM 56.8 °F - 33.6 °F 42% 29.86 in 10.0 mi NW 12.7 mph 17.3 mph N/A   Clear
9:54 PM 56.3 °F - 34.5 °F 44% 29.87 in 10.0 mi NNW 9.2 mph - N/A   Clear
10:13 PM 54.3 °F - 35.4 °F 49% 29.87 in 10.0 mi NW 8.1 mph - N/A   Clear
10:33 PM 54.3 °F - 35.8 °F 50% 29.87 in 10.0 mi NW 6.9 mph - N/A   Clear
10:54 PM 52.7 °F - 36.1 °F 53% 29.88 in 10.0 mi NW 4.6 mph - N/A   Clear
11:13 PM 51.8 °F - 36.5 °F 56% 29.88 in 10.0 mi WNW 4.6 mph - N/A   Clear
11:53 PM 50.0 °F - 37.4 °F 62% 29.88 in 10.0 mi WSW 4.6 mph - N/A   Clear